Weather History for Tapachula Airport, Mexico

Change the Weather History Date:

Sunday, March 3, 2013

  Actual Average Record
Temperature  
Mean Temperature 79 °F -  
Max Temperature 87 °F 87 °F 91 °F (1997)
Min Temperature 71 °F 72 °F 71 °F (1999)
Cooling Degree Days 14    
Growing Degree Days 29 (Base 50)    
Moisture  
Dew Point 66 °F    
Average Humidity 64    
Maximum Humidity 83    
Minimum Humidity 42    
Precipitation  
Precipitation 0.00 in - - ()
Sea Level Pressure  
Sea Level Pressure 29.90 in    
Wind  
Wind Speed 3 mph ()    
Max Wind Speed 12 mph    
Max Gust Speed -    
Visibility 9.4 miles    
Events      
Averages and records for this station are not official NWS values.
T = Trace of Precipitation, MM = Missing Value Source: Averaged Metar Reports

Daily Weather History Graph

Daily Weather History Graph

Search for Another Location

Airport:

Trip Planner

Search our weather history database for the weather conditions in past years. The results will help you decide how hot, cold, wet, or windy it might be!

Date:

Astronomy

Mar. 03, 2013 Rise Set
Actual Time 6:24 AM CST 6:17 PM CST
Civil Twilight 6:03 AM CST 6:39 PM CST
Nautical Twilight 5:38 AM CST 7:04 PM CST
Astronomical Twilight 5:13 AM CST 7:29 PM CST
Moon 11:57 PM CST (3/3) 10:42 AM CST (3/3)
Length of Visible Light 12h 35m
Length of Day
11h 52m
Waning Gibbous, 63% of the Moon is Illuminated
Mar 3
Waning Gibbous
Mar 4
Last Quarter
Mar 11
New
Mar 19
First Quarter
Mar 27
Full

Hourly Weather History & Observations

Time (CST) Temp. Heat Index Dew Point Humidity Pressure Visibility Wind Dir Wind Speed Gust Speed Precip Events Conditions
12:40 AM 78.8 °F - 53.6 °F 42% 29.93 in 8.0 mi Calm Calm - N/A   Mostly Cloudy
1:40 AM 73.4 °F - 62.6 °F 69% 29.90 in 8.0 mi NE 5.8 mph - N/A   Mostly Cloudy
2:45 AM 73.4 °F - 62.6 °F 69% 29.83 in 8.0 mi NE 5.8 mph - N/A   Mostly Cloudy
3:40 AM 71.6 °F - 64.4 °F 78% 29.88 in 8.0 mi Calm Calm - N/A   Mostly Cloudy
4:40 AM 71.6 °F - 64.4 °F 78% 29.88 in 8.0 mi Calm Calm - N/A   Mostly Cloudy
5:50 AM 77.0 °F - 62.6 °F 61% 29.86 in 8.0 mi Calm Calm - N/A   Mostly Cloudy
6:51 AM 71.6 °F - 59.0 °F 64% 29.92 in 8.0 mi Calm Calm - N/A   Mostly Cloudy
7:40 AM 73.4 °F - 62.6 °F 69% 29.94 in 10.0 mi Calm Calm - N/A   Mostly Cloudy
8:45 AM 80.6 °F 81.8 °F 62.6 °F 54% 29.91 in 10.0 mi Calm Calm - N/A   Mostly Cloudy
9:40 AM 80.6 °F 83.9 °F 69.8 °F 70% 29.94 in 10.0 mi Calm Calm - N/A   Unknown
10:40 AM 87.8 °F 92.6 °F 69.8 °F 55% 29.96 in 10.0 mi WSW 9.2 mph - N/A   Mostly Cloudy
11:40 AM 86.0 °F 90.4 °F 69.8 °F 58% 29.90 in 10.0 mi WSW 9.2 mph - N/A   Mostly Cloudy
12:45 PM 86.0 °F 90.4 °F 69.8 °F 58% 29.92 in 10.0 mi WSW 9.2 mph - N/A   Mostly Cloudy
1:40 PM 87.8 °F 92.6 °F 69.8 °F 55% 29.88 in 10.0 mi SW 11.5 mph - N/A   Mostly Cloudy
2:40 PM 87.8 °F 92.6 °F 69.8 °F 55% 29.88 in 10.0 mi SW 11.5 mph - N/A   Mostly Cloudy
3:40 PM 87.8 °F 92.6 °F 69.8 °F 55% 29.84 in 10.0 mi SSW 11.5 mph - N/A   Mostly Cloudy
4:40 PM 84.2 °F 88.4 °F 69.8 °F 62% 29.86 in 10.0 mi SSW 11.5 mph - N/A   Mostly Cloudy
5:40 PM 84.2 °F 88.4 °F 69.8 °F 62% 29.88 in 10.0 mi SSW 11.5 mph - N/A   Scattered Clouds
6:40 PM 82.4 °F 85.4 °F 68.0 °F 62% 29.91 in 10.0 mi Calm Calm - N/A   Scattered Clouds
7:40 PM 80.6 °F 83.2 °F 68.0 °F 65% 29.94 in 10.0 mi Calm Calm - N/A   Scattered Clouds
8:40 PM 80.6 °F 83.2 °F 68.0 °F 65% 29.87 in 10.0 mi Calm Calm - N/A   Scattered Clouds
9:40 PM 78.8 °F - 68.0 °F 69% 29.96 in 10.0 mi Calm Calm - N/A   Scattered Clouds
10:40 PM 78.8 °F - 68.0 °F 69% 29.96 in 10.0 mi Calm Calm - N/A   Scattered Clouds
11:40 PM 75.2 °F - 69.8 °F 83% 29.92 in 10.0 mi Calm Calm - N/A   Clear